Location: Cosy Dell
(34.2789°N, 117.4537°W)
Time: 00:48:52
(UTC+00:00)

Cosmos 2341 Rocket - Pass Details

Date: 14 July 2020
Orbit: 969 x 1004 km, 82.9° (Epoch: 12 August)

Event Time Altitude Azimuth Distance (km) Brightness Sun altitude
Exits shadow 06:27:54 52° 252° (WSW) 1,196 4.4 -30.3°
Maximum altitude 06:28:40 55° 279° (W) 1,155 4.4 -30.4°
Drops below altitude 10° 06:34:45 10° 356° (N) 2,716 7.1 -30.9°
Sets 06:37:20 0° 1° (N) 3,666 8.0 -31.1°
